This demonstration page uses our WeatherBlox Daily Observations layout. Learn more.

Left ArrowRight Arrow

39.51506, -84.39828

Hourly Observations for September 4, 2021

Temp ( °F °C ) Dew Point ( °F °C ) Humidity (%) Winds ( mph kmh ) Pressure ( in mb ) Visibility ( mi km ) Precip ( " mm )
12:15 am 00:15 Partly Cloudy 63 17.3 62 16.7 96 96 WNW 3 6 30.06 1018 10 16 N/A
12:35 am 00:35 Partly Cloudy 63 17.4 61 15.9 91 91 N N/A 30.06 1018 10 16 N/A
12:55 am 00:55 Partly Cloudy with Mist and Fog 64 17.6 61 16.3 92 92 N N/A 30.06 1018 4 6 N/A
1:15 am 01:15 Partly Cloudy with Mist and Fog 63 17.4 63 17 98 98 N N/A 30.06 1018 3 5 N/A
1:35 am 01:35 Mostly Cloudy 64 17.6 63 17.2 98 98 N N/A 30.06 1018 10 16 N/A
1:55 am 01:55 Cloudy 63 17.4 62 16.7 96 96 N N/A 30.05 1018 10 16 N/A
2:15 am 02:15 Cloudy 64 17.5 62 16.5 94 94 N 3 6 30.05 1018 10 16 N/A
2:35 am 02:35 Cloudy 63 17.4 61 16.2 93 93 N N/A 30.05 1018 10 16 N/A
2:55 am 02:55 Cloudy 64 17.6 61 16.2 92 92 N N/A 30.05 1018 10 16 N/A
3:15 am 03:15 Cloudy 63 17.3 61 16 92 92 N N/A 30.05 1018 10 16 N/A
3:35 am 03:35 Cloudy 63 17.4 62 16.6 95 95 N N/A 30.05 1018 10 16 N/A
3:55 am 03:55 Cloudy 63 17.3 61 16.2 93 93 N N/A 30.04 1017 10 16 N/A
4:15 am 04:15 Mostly Cloudy 63 17 62 16.4 96 96 N 3 6 30.03 1017 10 16 N/A
4:35 am 04:35 Cloudy 62 16.8 61 16.1 96 96 N 5 7 30.03 1017 10 16 N/A
4:55 am 04:55 Mostly Cloudy 62 16.4 61 15.9 97 97 N N/A 30.03 1017 10 16 N/A
5:15 am 05:15 Partly Cloudy 61 16 61 15.9 99 99 N N/A 30.03 1017 10 16 N/A
5:35 am 05:35 Clear 61 16 61 16 100 100 N N/A 30.03 1017 10 16 N/A
5:55 am 05:55 Clear 61 16 N/A N/A N N/A 30.04 1017 10 16 0.01 0.25
6:15 am 06:15 Partly Cloudy 61 16.1 61 16 99 99 N N/A 30.04 1017 10 16 N/A
6:35 am 06:35 Mostly Cloudy 59 15 59 15 100 100 NNE 3 6 30.04 1017 10 16 N/A
6:55 am 06:55 Cloudy 61 15.9 60 15.8 99 99 N N/A 30.04 1017 10 16 N/A
7:15 am 07:15 Cloudy 61 16.1 61 16 99 99 N N/A 30.04 1017 10 16 N/A
7:35 am 07:35 Cloudy 61 16.2 61 16.2 100 100 N N/A 30.05 1018 10 16 N/A
7:55 am 07:55 Cloudy 62 16.6 61 16.2 98 98 NNE 3 6 30.05 1018 10 16 N/A
8:15 am 08:15 Mostly Cloudy 63 17.1 62 16.4 96 96 N N/A 30.04 1017 10 16 N/A
8:35 am 08:35 Mostly Cloudy 65 18.3 59 14.8 80 80 N N/A 30.03 1017 10 16 N/A
8:55 am 08:55 Mostly Cloudy 68 19.8 57 14.1 70 70 SSE 6 9 30.03 1017 10 16 N/A
9:15 am 09:15 Mostly Cloudy 69 20.8 57 14 65 65 S 6 9 30.02 1017 10 16 N/A
9:35 am 09:35 Cloudy 69 20.4 57 14.1 67 67 SSE 5 7 30.01 1016 10 16 N/A
9:55 am 09:55 Cloudy 69 20.5 58 14.5 69 69 S 6 9 30.00 1016 10 16 N/A
10:15 am 10:15 Cloudy 69 20.6 59 14.8 70 70 S 7 11 30.00 1016 10 16 N/A
10:35 am 10:35 Mostly Cloudy 70 21 59 15.1 69 69 S 6 9 30.01 1016 10 16 N/A
10:55 am 10:55 Partly Cloudy 71 21.9 60 15.8 68 68 SW 6 9 30.01 1016 10 16 N/A
11:15 am 11:15 Sunny 72 22 61 16 69 69 SSW 7 11 30.01 1016 10 16 N/A
11:35 am 11:35 Mostly Cloudy 73 22.8 62 16.7 69 69 SSW 6 9 30.00 1016 10 16 N/A
11:55 am 11:55 Mostly Cloudy 74 23.5 62 16.9 67 67 SSW 8 13 29.99 1015 10 16 N/A
12:15 pm 12:15 Cloudy 74 23.2 63 17.1 69 69 WSW 6 9 29.99 1015 10 16 N/A
12:35 pm 12:35 Cloudy 74 23.6 63 17.4 68 68 S 5 7 29.98 1015 10 16 N/A
12:55 pm 12:55 Partly Cloudy 76 24.7 64 17.6 65 65 S 6 9 29.97 1015 10 16 N/A
1:15 pm 13:15 Mostly Cloudy 77 25.2 64 17.6 63 63 SSW 10 17 29.97 1015 10 16 N/A
1:35 pm 13:35 Mostly Cloudy 78 25.6 64 17.5 61 61 SW 12 19 29.96 1015 10 16 N/A
1:55 pm 13:55 Cloudy 79 25.9 64 17.6 60 60 WSW 10 17 29.96 1015 10 16 N/A
2:15 pm 14:15 Mostly Cloudy 79 26.2 64 17.7 60 60 SW 9 15 29.95 1014 10 16 N/A
2:35 pm 14:35 Mostly Cloudy 79 25.9 63 17.3 59 59 SW 10 17 29.94 1014 10 16 N/A
2:55 pm 14:55 Cloudy 78 25.8 63 17.4 60 60 SSW 12 19 29.93 1014 10 16 N/A
3:15 pm 15:15 Partly Cloudy 79 26 63 17 58 58 WSW 10 17 29.93 1014 10 16 N/A
3:35 pm 15:35 Mostly Cloudy 78 25.5 63 17.3 61 61 SW 10 17 29.93 1014 10 16 N/A
3:55 pm 15:55 Cloudy 78 25.5 64 18 63 63 SW 9 15 29.92 1013 10 16 N/A
4:15 pm 16:15 Cloudy 78 25.6 65 18.1 63 63 WSW 6 9 29.91 1013 10 16 N/A
4:35 pm 16:35 Cloudy 77 25.1 64 17.6 63 63 WSW 8 13 29.91 1013 10 16 N/A
4:55 pm 16:55 Cloudy 76 24.5 64 18 67 67 WSW 5 7 29.91 1013 10 16 N/A
5:15 pm 17:15 Cloudy 76 24.4 65 18.6 70 70 W 3 6 29.91 1013 10 16 N/A
5:35 pm 17:35 Cloudy 75 24.1 67 19.6 76 76 N N/A 29.91 1013 10 16 N/A
5:55 pm 17:55 Cloudy 76 24.3 67 19.4 74 74 N N/A 29.90 1013 10 16 N/A
6:15 pm 18:15 Cloudy 75 23.7 69 20.7 83 83 N N/A 29.90 1012 10 16 N/A
6:35 pm 18:35 Cloudy 74 23.4 72 22 92 92 N N/A 29.90 1012 10 16 N/A
6:55 pm 18:55 Cloudy with Light Rain 75 23.7 71 21.4 87 87 W 3 6 29.89 1012 10 16 N/A
7:15 pm 19:15 Cloudy with Light Rain 74 23.2 68 20 82 82 SW 8 13 29.89 1012 10 16 N/A
7:35 pm 19:35 Cloudy with Light Rain 71 21.8 67 19.6 87 87 SW 7 11 29.90 1013 7 11 N/A
7:55 pm 19:55 Cloudy with Light Rain 69 20.8 67 19.6 93 93 SW 7 11 29.89 1012 10 16 N/A
8:15 pm 20:15 Cloudy with Light Rain 69 20.5 68 19.9 96 96 SSW 5 7 29.88 1012 10 16 N/A
8:35 pm 20:35 Cloudy with Light Rain 69 20.3 68 20.1 99 99 WSW 5 7 29.88 1012 10 16 N/A
8:55 pm 20:55 Cloudy 68 20 68 20 100 100 N N/A 29.88 1012 10 16 N/A
9:15 pm 21:15 Cloudy 68 20 N/A N/A N N/A 29.88 1012 10 16 N/A
9:35 pm 21:35 Cloudy with Rain 68 20 N/A N/A N N/A 29.88 1012 4 6 N/A
9:55 pm 21:55 Cloudy with Light Rain 68 20 N/A N/A N N/A 29.88 1012 10 16 N/A
10:15 pm 22:15 Cloudy with Light Rain 68 20 N/A N/A NNW 3 6 29.88 1012 7 11 N/A
10:35 pm 22:35 Cloudy 68 20 N/A N/A N N/A 29.87 1012 10 16 N/A
10:55 pm 22:55 Cloudy 68 20 N/A N/A N N/A 29.87 1012 7 11 N/A
11:15 pm 23:15 Cloudy with Light Rain 68 20 N/A N/A N N/A 29.87 1012 4 6 N/A
11:35 pm 23:35 Cloudy 68 20 N/A N/A SW 7 11 29.87 1012 10 16 N/A
11:55 pm 23:55 Cloudy with Light Rain 68 20 N/A N/A SW 7 11 29.87 1012 10 16 N/A

Powered by AerisWeather